Time,TemperatureF,DewpointF,PressureIn,WindDirection,WindDirectionDegrees,WindSpeedMPH,WindSpeedGustMPH,Humidity,HourlyPrecipIn,Conditions,Clouds,dailyrainin,SoftwareType,DateUTC
2013-10-10 00:03:00,43.9,38.7,30.00,NNW,337,0.0,0.0,82,0.00,,,0.00,open2300-1.11,2013-10-10 07:03:00,
2013-10-10 00:13:00,43.9,38.7,29.99,NNW,337,0.0,0.0,82,0.00,,,0.00,open2300-1.11,2013-10-10 07:13:00,
2013-10-10 00:23:00,43.9,38.7,29.99,NNW,337,0.0,0.0,82,0.00,,,0.00,open2300-1.11,2013-10-10 07:23:00,
2013-10-10 00:33:00,43.9,38.7,29.99,NNW,337,0.0,0.0,82,0.00,,,0.00,open2300-1.11,2013-10-10 07:33:00,
2013-10-10 00:43:00,44.1,39.2,29.98,NNW,337,0.0,0.0,83,0.00,,,0.00,open2300-1.11,2013-10-10 07:43:00,
2013-10-10 00:53:00,44.2,39.4,29.98,NNW,337,0.0,0.0,83,0.00,,,0.00,open2300-1.11,2013-10-10 07:53:00,
2013-10-10 01:05:00,44.4,39.6,29.98,NNW,337,0.0,0.0,83,0.00,,,0.00,open2300-1.11,2013-10-10 08:05:00,
2013-10-10 01:13:00,44.4,39.6,29.98,NNW,337,0.0,0.0,83,0.00,,,0.00,open2300-1.11,2013-10-10 08:13:00,
2013-10-10 01:23:00,44.4,39.6,29.98,NNW,337,0.0,0.0,83,0.00,,,0.00,open2300-1.11,2013-10-10 08:23:00,
2013-10-10 01:33:00,44.4,39.6,29.99,NNW,337,0.0,0.0,83,0.00,,,0.00,open2300-1.11,2013-10-10 08:33:00,
2013-10-10 01:43:00,44.2,39.4,29.99,NNW,337,0.0,0.0,83,0.00,,,0.00,open2300-1.11,2013-10-10 08:43:00,
2013-10-10 01:53:00,44.1,39.2,29.99,NNW,337,0.0,0.0,83,0.00,,,0.00,open2300-1.11,2013-10-10 08:53:00,
2013-10-10 02:05:00,43.9,39.0,29.99,NNW,337,0.0,0.0,83,0.00,,,0.00,open2300-1.11,2013-10-10 09:05:00,
2013-10-10 02:13:00,43.9,39.0,29.99,NNW,337,0.0,0.0,83,0.00,,,0.00,open2300-1.11,2013-10-10 09:13:00,
2013-10-10 02:23:00,43.5,38.7,29.98,NNW,337,0.0,0.0,83,0.00,,,0.00,open2300-1.11,2013-10-10 09:23:00,
2013-10-10 02:33:00,43.2,38.3,29.97,NNW,337,0.0,0.0,83,0.00,,,0.00,open2300-1.11,2013-10-10 09:33:00,
2013-10-10 02:43:00,43.0,38.1,29.98,NNW,337,0.0,0.0,83,0.00,,,0.00,open2300-1.11,2013-10-10 09:43:00,
2013-10-10 02:53:00,42.6,37.8,29.98,NNW,337,0.0,0.0,83,0.00,,,0.00,open2300-1.11,2013-10-10 09:53:00,
2013-10-10 03:05:00,42.1,37.2,29.98,NNW,337,0.0,0.0,83,0.00,,,0.00,open2300-1.11,2013-10-10 10:05:00,
2013-10-10 03:13:00,41.9,37.4,29.98,NNW,337,0.0,0.0,84,0.00,,,0.00,open2300-1.11,2013-10-10 10:13:00,
2013-10-10 03:23:00,41.7,37.2,29.98,NNW,337,0.0,0.0,84,0.00,,,0.00,open2300-1.11,2013-10-10 10:23:00,
2013-10-10 03:33:00,41.5,36.7,29.98,NNW,337,0.0,0.0,83,0.00,,,0.00,open2300-1.11,2013-10-10 10:33:00,
2013-10-10 03:43:00,41.5,36.7,29.98,NNW,337,0.0,0.0,83,0.00,,,0.00,open2300-1.11,2013-10-10 10:43:00,
2013-10-10 03:53:00,41.5,36.7,29.98,NNW,337,0.0,0.0,83,0.00,,,0.00,open2300-1.11,2013-10-10 10:53:00,
2013-10-10 04:05:00,41.4,36.5,29.97,NNW,337,0.0,0.0,83,0.00,,,0.00,open2300-1.11,2013-10-10 11:05:00,
2013-10-10 04:13:00,41.2,36.3,29.98,NNW,337,0.0,0.0,83,0.00,,,0.00,open2300-1.11,2013-10-10 11:13:00,
2013-10-10 04:23:00,40.8,36.0,29.98,NNW,337,0.0,0.0,83,0.00,,,0.00,open2300-1.11,2013-10-10 11:23:00,
2013-10-10 04:33:00,40.8,36.0,29.97,NNW,337,0.0,0.0,83,0.00,,,0.00,open2300-1.11,2013-10-10 11:33:00,
2013-10-10 04:43:00,40.6,36.1,29.98,NNW,337,0.0,0.0,84,0.00,,,0.00,open2300-1.11,2013-10-10 11:43:00,
2013-10-10 04:53:00,40.3,35.8,29.98,NNW,337,0.0,0.0,84,0.00,,,0.00,open2300-1.11,2013-10-10 11:53:00,
2013-10-10 05:05:00,40.1,35.6,29.98,NNW,337,0.0,0.0,84,0.00,,,0.00,open2300-1.11,2013-10-10 12:05:00,
2013-10-10 05:13:00,40.1,35.6,29.98,NNW,337,0.0,0.0,84,0.00,,,0.00,open2300-1.11,2013-10-10 12:13:00,
2013-10-10 05:23:00,39.9,35.4,29.98,NNW,337,0.0,0.0,84,0.00,,,0.00,open2300-1.11,2013-10-10 12:23:00,
2013-10-10 05:33:00,39.9,35.4,29.98,NNW,337,0.0,0.0,84,0.00,,,0.00,open2300-1.11,2013-10-10 12:33:00,
2013-10-10 05:43:00,39.7,35.0,29.98,NNW,337,0.0,0.0,83,0.00,,,0.00,open2300-1.11,2013-10-10 12:43:00,
2013-10-10 05:53:00,39.4,34.9,29.99,NNW,337,0.0,0.0,84,0.00,,,0.00,open2300-1.11,2013-10-10 12:53:00,
2013-10-10 06:05:00,39.4,34.9,29.99,NNW,337,0.0,0.0,84,0.00,,,0.00,open2300-1.11,2013-10-10 13:05:00,
2013-10-10 06:13:00,39.4,34.9,29.98,NNW,337,0.0,0.0,84,0.00,,,0.00,open2300-1.11,2013-10-10 13:13:00,
2013-10-10 06:23:00,39.6,35.4,29.98,NNW,337,0.0,0.0,85,0.00,,,0.00,open2300-1.11,2013-10-10 13:23:00,
2013-10-10 06:33:00,39.9,35.7,29.98,NNW,337,0.0,0.0,85,0.00,,,0.00,open2300-1.11,2013-10-10 13:33:00,
2013-10-10 06:43:00,40.6,36.7,29.98,NNW,337,0.0,0.0,86,0.00,,,0.00,open2300-1.11,2013-10-10 13:43:00,
2013-10-10 06:53:00,40.6,36.7,30.00,NNW,337,0.0,0.0,86,0.00,,,0.00,open2300-1.11,2013-10-10 13:53:00,
2013-10-10 07:05:00,40.5,36.5,30.00,NNW,337,0.0,0.0,86,0.00,,,0.00,open2300-1.11,2013-10-10 14:05:00,
2013-10-10 07:13:00,40.1,35.9,30.00,NNW,337,0.0,0.0,85,0.00,,,0.00,open2300-1.11,2013-10-10 14:13:00,
2013-10-10 07:23:00,40.1,36.2,30.01,NNW,337,0.0,0.0,86,0.00,,,0.00,open2300-1.11,2013-10-10 14:23:00,
2013-10-10 07:33:00,40.6,36.7,30.01,NNW,337,0.0,0.0,86,0.00,,,0.00,open2300-1.11,2013-10-10 14:33:00,
2013-10-10 07:43:00,41.2,37.6,30.01,NNW,337,0.0,0.0,87,0.00,,,0.00,open2300-1.11,2013-10-10 14:43:00,
2013-10-10 07:53:00,41.5,37.9,30.01,NNW,337,0.0,0.0,87,0.00,,,0.00,open2300-1.11,2013-10-10 14:53:00,
2013-10-10 08:03:00,42.1,38.5,30.01,NNW,337,0.0,0.0,87,0.00,,,0.00,open2300-1.11,2013-10-10 15:03:00,
2013-10-10 08:13:00,42.6,39.0,30.02,NNW,337,0.0,0.0,87,0.00,,,0.00,open2300-1.11,2013-10-10 15:13:00,
2013-10-10 08:23:00,43.0,39.4,30.02,NNW,337,0.0,0.0,87,0.00,,,0.00,open2300-1.11,2013-10-10 15:23:00,
2013-10-10 08:33:00,43.5,39.9,30.02,NNW,337,0.0,0.0,87,0.00,,,0.00,open2300-1.11,2013-10-10 15:33:00,
2013-10-10 08:43:00,43.9,40.3,30.02,NNW,337,0.0,0.0,87,0.00,,,0.00,open2300-1.11,2013-10-10 15:43:00,
2013-10-10 08:53:00,44.2,40.6,30.02,NNW,337,0.0,0.0,87,0.00,,,0.00,open2300-1.11,2013-10-10 15:53:00,
2013-10-10 09:03:00,44.4,40.8,30.02,NNW,337,0.0,0.0,87,0.00,,,0.00,open2300-1.11,2013-10-10 16:03:00,
2013-10-10 09:13:00,44.8,41.0,30.02,NNW,337,0.0,0.0,87,0.00,,,0.00,open2300-1.11,2013-10-10 16:13:00,
2013-10-10 09:23:00,45.0,41.3,30.02,NNW,337,0.0,0.0,87,0.00,,,0.00,open2300-1.11,2013-10-10 16:23:00,
2013-10-10 09:33:00,45.5,41.9,30.02,NNW,337,0.0,0.0,87,0.00,,,0.00,open2300-1.11,2013-10-10 16:33:00,
2013-10-10 09:43:00,45.7,41.8,30.03,NNW,337,0.0,0.0,86,0.00,,,0.00,open2300-1.11,2013-10-10 16:43:00,
2013-10-10 09:53:00,46.0,42.1,30.03,NNW,337,0.0,0.0,86,0.00,,,0.00,open2300-1.11,2013-10-10 16:53:00,
2013-10-10 10:03:00,46.2,42.3,30.03,NNW,337,0.0,0.0,86,0.00,,,0.00,open2300-1.11,2013-10-10 17:03:00,
2013-10-10 10:13:00,46.6,42.6,30.03,NNW,337,0.0,0.0,86,0.00,,,0.00,open2300-1.11,2013-10-10 17:13:00,
2013-10-10 10:23:00,47.1,42.8,30.03,NNW,337,0.0,0.0,85,0.00,,,0.00,open2300-1.11,2013-10-10 17:23:00,
2013-10-10 10:33:00,47.5,43.2,30.03,NNW,337,0.0,0.0,85,0.00,,,0.00,open2300-1.11,2013-10-10 17:33:00,
2013-10-10 10:43:00,48.0,43.4,30.03,NNW,337,0.0,0.0,84,0.00,,,0.00,open2300-1.11,2013-10-10 17:43:00,
2013-10-10 10:53:00,48.4,43.7,30.03,NNW,337,0.0,0.0,84,0.00,,,0.00,open2300-1.11,2013-10-10 17:53:00,
2013-10-10 11:03:00,48.9,43.9,30.03,NNW,337,0.0,0.0,83,0.00,,,0.00,open2300-1.11,2013-10-10 18:03:00,
2013-10-10 11:13:00,49.3,44.3,30.03,NNW,337,0.0,0.0,83,0.00,,,0.00,open2300-1.11,2013-10-10 18:13:00,
2013-10-10 11:23:00,49.8,44.5,30.03,NNW,337,0.0,0.0,82,0.00,,,0.00,open2300-1.11,2013-10-10 18:23:00,
2013-10-10 11:33:00,50.2,44.8,30.03,NNW,337,0.0,0.0,82,0.00,,,0.00,open2300-1.11,2013-10-10 18:33:00,
2013-10-10 11:43:00,50.7,45.1,30.03,NNW,337,0.0,0.0,81,0.00,,,0.00,open2300-1.11,2013-10-10 18:43:00,
2013-10-10 11:53:00,51.4,45.5,30.03,NNW,337,0.0,0.0,80,0.00,,,0.00,open2300-1.11,2013-10-10 18:53:00,
2013-10-10 12:03:00,51.6,45.3,30.03,NNW,337,0.0,0.0,79,0.00,,,0.00,open2300-1.11,2013-10-10 19:03:00,
2013-10-10 12:13:00,52.9,46.2,30.03,NNW,337,0.0,0.0,78,0.00,,,0.00,open2300-1.11,2013-10-10 19:13:00,
2013-10-10 12:23:00,53.8,46.4,30.03,NNW,337,0.0,0.0,76,0.00,,,0.00,open2300-1.11,2013-10-10 19:23:00,
2013-10-10 12:33:00,54.5,46.7,30.04,NNW,337,0.0,0.0,75,0.00,,,0.00,open2300-1.11,2013-10-10 19:33:00,
2013-10-10 12:43:00,55.6,47.7,30.03,NNW,337,0.0,0.0,75,0.00,,,0.00,open2300-1.11,2013-10-10 19:43:00,
2013-10-10 12:53:00,55.6,47.4,30.04,NNW,337,0.0,0.0,74,0.00,,,0.00,open2300-1.11,2013-10-10 19:53:00,
2013-10-10 13:03:00,55.8,47.5,30.03,NNW,337,0.0,0.0,74,0.00,,,0.00,open2300-1.11,2013-10-10 20:03:00,
2013-10-10 13:13:00,55.9,47.4,30.03,NNW,337,0.0,0.0,73,0.00,,,0.00,open2300-1.11,2013-10-10 20:13:00,
2013-10-10 13:23:00,56.8,47.9,30.02,NNW,337,0.0,0.0,72,0.00,,,0.00,open2300-1.11,2013-10-10 20:23:00,
2013-10-10 13:33:00,56.8,47.5,30.02,NNW,337,0.0,0.0,71,0.00,,,0.00,open2300-1.11,2013-10-10 20:33:00,
2013-10-10 13:43:00,57.4,48.0,30.02,NNW,337,0.0,0.0,71,0.00,,,0.00,open2300-1.11,2013-10-10 20:43:00,
2013-10-10 13:53:00,58.6,48.5,30.02,NNW,337,0.0,0.0,69,0.00,,,0.00,open2300-1.11,2013-10-10 20:53:00,
2013-10-10 14:03:00,58.5,47.9,30.02,NNW,337,0.0,0.0,68,0.00,,,0.00,open2300-1.11,2013-10-10 21:03:00,
2013-10-10 14:13:00,58.8,47.0,30.02,NNW,337,0.0,0.0,65,0.00,,,0.00,open2300-1.11,2013-10-10 21:13:00,
2013-10-10 14:23:00,58.8,46.6,30.02,NNW,337,0.0,0.0,64,0.00,,,0.00,open2300-1.11,2013-10-10 21:23:00,
2013-10-10 14:33:00,58.8,45.8,30.02,NNW,337,0.0,0.0,62,0.00,,,0.00,open2300-1.11,2013-10-10 21:33:00,
2013-10-10 14:43:00,59.2,46.2,30.02,NNW,337,0.0,0.0,62,0.00,,,0.00,open2300-1.11,2013-10-10 21:43:00,
2013-10-10 14:53:00,59.5,45.7,30.02,NNW,337,0.0,0.0,60,0.00,,,0.00,open2300-1.11,2013-10-10 21:53:00,
2013-10-10 15:03:00,59.9,45.5,30.02,NNW,337,0.0,0.0,59,0.00,,,0.00,open2300-1.11,2013-10-10 22:03:00,
2013-10-10 15:13:00,60.1,44.8,30.02,NNW,337,0.0,0.0,57,0.00,,,0.00,open2300-1.11,2013-10-10 22:13:00,
2013-10-10 15:23:00,60.6,45.3,30.02,NNW,337,0.0,0.0,57,0.00,,,0.00,open2300-1.11,2013-10-10 22:23:00,
2013-10-10 15:33:00,61.5,45.6,30.02,NNW,337,0.0,0.0,56,0.00,,,0.00,open2300-1.11,2013-10-10 22:33:00,
2013-10-10 15:43:00,61.9,44.5,30.02,NNW,337,0.0,0.0,53,0.00,,,0.00,open2300-1.11,2013-10-10 22:43:00,
2013-10-10 15:53:00,62.2,44.3,30.02,NNW,337,0.0,0.0,52,0.00,,,0.00,open2300-1.11,2013-10-10 22:53:00,
2013-10-10 16:03:00,62.8,43.9,30.02,NNW,337,0.0,0.0,50,0.00,,,0.00,open2300-1.11,2013-10-10 23:03:00,
2013-10-10 16:13:00,62.6,42.0,30.02,NNW,337,0.0,0.0,47,0.00,,,0.00,open2300-1.11,2013-10-10 23:13:00,
2013-10-10 16:23:00,62.8,41.6,30.02,NNW,337,0.0,0.0,46,0.00,,,0.00,open2300-1.11,2013-10-10 23:23:00,
2013-10-10 16:33:00,61.9,41.3,30.02,NNW,337,0.0,0.0,47,0.00,,,0.00,open2300-1.11,2013-10-10 23:33:00,
2013-10-10 16:43:00,61.5,41.6,30.02,NNW,337,0.0,0.0,48,0.00,,,0.00,open2300-1.11,2013-10-10 23:43:00,
2013-10-10 16:53:00,62.4,41.8,30.02,NNW,337,0.0,0.0,47,0.00,,,0.00,open2300-1.11,2013-10-10 23:53:00,
2013-10-10 17:03:00,64.2,42.3,30.02,NNW,337,0.0,0.0,45,0.00,,,0.00,open2300-1.11,2013-10-11 00:03:00,
2013-10-10 17:13:00,62.8,42.1,30.02,NNW,337,0.0,0.0,47,0.00,,,0.00,open2300-1.11,2013-10-11 00:13:00,
2013-10-10 17:23:00,61.5,42.7,30.02,NNW,337,0.0,0.0,50,0.00,,,0.00,open2300-1.11,2013-10-11 00:23:00,
2013-10-10 17:33:00,60.1,42.8,30.02,NNW,337,0.0,0.0,53,0.00,,,0.00,open2300-1.11,2013-10-11 00:33:00,
2013-10-10 17:43:00,58.8,43.1,30.02,NNW,337,0.0,0.0,56,0.00,,,0.00,open2300-1.11,2013-10-11 00:43:00,
2013-10-10 17:53:00,58.6,43.4,30.02,NNW,337,0.0,0.0,57,0.00,,,0.00,open2300-1.11,2013-10-11 00:53:00,
2013-10-10 18:03:00,57.7,43.1,30.02,NNW,337,0.0,0.0,58,0.00,,,0.00,open2300-1.11,2013-10-11 01:03:00,
2013-10-10 18:13:00,57.0,42.9,30.02,NNW,337,0.0,0.0,59,0.00,,,0.00,open2300-1.11,2013-10-11 01:13:00,
2013-10-10 18:23:00,56.5,42.8,30.02,NNW,337,0.0,0.0,60,0.00,,,0.00,open2300-1.11,2013-10-11 01:23:00,
2013-10-10 18:33:00,55.9,42.7,30.02,NNW,337,0.0,0.0,61,0.00,,,0.00,open2300-1.11,2013-10-11 01:33:00,
2013-10-10 18:43:00,55.2,42.4,30.02,NNW,337,0.0,0.0,62,0.00,,,0.00,open2300-1.11,2013-10-11 01:43:00,
2013-10-10 18:53:00,54.5,41.7,30.02,NNW,337,0.0,0.0,62,0.00,,,0.00,open2300-1.11,2013-10-11 01:53:00,
2013-10-10 19:03:00,53.8,41.5,30.03,NNW,337,0.0,0.0,63,0.00,,,0.00,open2300-1.11,2013-10-11 02:03:00,
2013-10-10 19:13:00,53.4,41.5,30.03,NNW,337,0.0,0.0,64,0.00,,,0.00,open2300-1.11,2013-10-11 02:13:00,
2013-10-10 19:23:00,53.4,41.5,30.03,NNW,337,0.0,0.0,64,0.00,,,0.00,open2300-1.11,2013-10-11 02:23:00,
2013-10-10 19:33:00,53.2,41.7,30.03,NNW,337,0.0,0.0,65,0.00,,,0.00,open2300-1.11,2013-10-11 02:33:00,
2013-10-10 19:43:00,52.9,42.2,30.04,NNW,337,0.0,0.0,67,0.00,,,0.00,open2300-1.11,2013-10-11 02:43:00,
2013-10-10 19:53:00,52.9,42.2,30.04,NNW,337,0.0,0.0,67,0.00,,,0.00,open2300-1.11,2013-10-11 02:53:00,
2013-10-10 20:03:00,52.9,42.2,30.04,NNW,337,0.0,0.0,67,0.00,,,0.00,open2300-1.11,2013-10-11 03:03:00,
2013-10-10 20:13:00,52.7,42.4,30.04,NNW,337,0.0,0.0,68,0.00,,,0.00,open2300-1.11,2013-10-11 03:13:00,
2013-10-10 20:23:00,52.7,42.4,30.04,NNW,337,0.0,0.0,68,0.00,,,0.00,open2300-1.11,2013-10-11 03:23:00,
2013-10-10 20:33:00,52.7,42.8,30.04,NNW,337,0.0,0.0,69,0.00,,,0.00,open2300-1.11,2013-10-11 03:33:00,
2013-10-10 20:43:00,52.9,43.4,30.06,NNW,337,0.0,0.0,70,0.00,,,0.00,open2300-1.11,2013-10-11 03:43:00,
2013-10-10 20:53:00,53.2,44.4,30.06,NNW,337,0.0,0.0,72,0.00,,,0.00,open2300-1.11,2013-10-11 03:53:00,
2013-10-10 21:03:00,53.6,45.1,30.06,NNW,337,0.0,0.0,73,0.00,,,0.00,open2300-1.11,2013-10-11 04:03:00,
2013-10-10 21:13:00,53.4,45.0,30.06,NNW,337,0.0,0.0,73,0.00,,,0.00,open2300-1.11,2013-10-11 04:13:00,
2013-10-10 21:23:00,53.2,45.2,30.07,NNW,337,0.0,0.0,74,0.00,,,0.00,open2300-1.11,2013-10-11 04:23:00,
2013-10-10 21:33:00,52.9,44.8,30.07,NNW,337,0.0,0.0,74,0.00,,,0.00,open2300-1.11,2013-10-11 04:33:00,
2013-10-10 21:43:00,52.9,44.8,30.07,NNW,337,0.0,0.0,74,0.00,,,0.00,open2300-1.11,2013-10-11 04:43:00,
2013-10-10 21:53:00,52.5,44.5,30.07,NNW,337,0.0,0.0,74,0.00,,,0.00,open2300-1.11,2013-10-11 04:53:00,
2013-10-10 22:03:00,52.2,44.5,30.08,NNW,337,0.0,0.0,75,0.00,,,0.00,open2300-1.11,2013-10-11 05:03:00,
2013-10-10 22:13:00,51.8,44.2,30.08,NNW,337,0.0,0.0,75,0.00,,,0.00,open2300-1.11,2013-10-11 05:13:00,
2013-10-10 22:23:00,51.6,44.0,30.08,NNW,337,0.0,0.0,75,0.00,,,0.00,open2300-1.11,2013-10-11 05:23:00,
2013-10-10 22:33:00,51.1,43.4,30.08,NNW,337,0.0,0.0,75,0.00,,,0.00,open2300-1.11,2013-10-11 05:33:00,
2013-10-10 22:43:00,50.7,43.1,30.08,NNW,337,0.0,0.0,75,0.00,,,0.00,open2300-1.11,2013-10-11 05:43:00,
2013-10-10 22:53:00,50.2,42.9,30.08,NNW,337,0.0,0.0,76,0.00,,,0.00,open2300-1.11,2013-10-11 05:53:00,
2013-10-10 23:03:00,49.6,42.3,30.08,NNW,337,0.0,0.0,76,0.00,,,0.00,open2300-1.11,2013-10-11 06:03:00,
2013-10-10 23:13:00,49.1,41.8,30.09,NNW,337,0.0,0.0,76,0.00,,,0.00,open2300-1.11,2013-10-11 06:13:00,
2013-10-10 23:23:00,48.7,41.4,30.10,NNW,337,0.0,0.0,76,0.00,,,0.00,open2300-1.11,2013-10-11 06:23:00,
2013-10-10 23:33:00,48.7,41.8,30.10,NNW,337,0.0,0.0,77,0.00,,,0.00,open2300-1.11,2013-10-11 06:33:00,
2013-10-10 23:43:00,49.1,42.1,30.10,NNW,337,0.0,0.0,77,0.00,,,0.00,open2300-1.11,2013-10-11 06:43:00,
2013-10-10 23:53:00,49.6,43.0,30.10,NNW,337,0.0,0.0,78,0.00,,,0.00,open2300-1.11,2013-10-11 06:53:00,